Express-OSCAR-53

operational
NORAD ID: 28894 Int'l Des: 2005-043 Owner: ESA Country: I-ESA
LEOCIRCULARRETROGRADESSO

Über Express-OSCAR-53

Beschreibung wird geladen...

Live-Position

3D-Globus wird geladen...

Nächste Überflüge

Höhenverlauf

Altitude vs Time

uPlot chart will show altitude changes over time

Zweizeiliger Elementsatz

1 28894U 05043E 26062.33956957 .00000941 00000-0 18370-3 0 9992
2 28894 98.2884 201.3230 0014799 249.6003 110.3611 14.65239351 84775
Epoch: 3. März 2026 • Age: 42 hours

Aktueller Status

Höhe 675.9 km
Geschwindigkeit 7.52 km/s
Subsatellitenpunkt -15.80°S, 49.42°W
Startdatum 27. Okt. 2005
Alter 20.3 years
Typ other

Technische Details

Klassifizierung Payload
Masse 77.00 kg
Trockenmasse 77.00 kg
Gesamtmasse 77.00 kg
Länge 1.00 m
Durchmesser 0.60 m
Spannweite 1.80 m
Form Box + 2 Pan
Hersteller ESTEC
Bus-Typ SSETI
Phasenstatus In Orbit
Besitzer/Staat ESA/I-ESA

Große Konstellationen

Loading constellations...